Simultaneous Nadir Overpasses (SNOs) Predictions

Prediction of SNOs between GOES-16 and NOAA-19 Satellite Orbit:

Table of predicted SNOs for the next 14.0 days since TLE Epoch: 3/22/2019
Index Date Time (GOES-16) GOES-16 Lat,Lon NOAA-19 Lat,Lon Distance(km) Time Diff (sec)
1 03/22/2019 21:56:55 -0.01, -75.20 0.00, -78.41 357.14 0
2 03/23/2019 21:43:46 0.00, -75.20 -0.05, -75.41 23.97 80
3 03/24/2019 21:34:50 0.01, -75.21 0.60, -72.58 299.94 80
4 03/27/2019 09:56:03 -0.02, -75.23 0.52, -77.60 270.54 80
5 03/28/2019 09:41:46 -0.02, -75.24 -0.13, -74.77 53.94 80
6 03/29/2019 09:30:10 -0.01, -75.25 -0.79, -71.94 378.62 80
7 03/31/2019 21:51:19 -0.01, -75.27 -0.42, -76.94 190.72 80
8 04/01/2019 21:42:24 -0.01, -75.29 0.29, -74.12 134.63 80
9 04/02/2019 21:30:48 -0.01, -75.31 0.94, -71.28 459.99 80
10 04/04/2019 10:03:35 0.01, -75.35 0.90, -79.13 431.84 80
11 04/05/2019 09:51:58 0.01, -75.37 0.23, -76.29 106.12 80




NCC Satellite Simultaneous Nadir Overpasses (SNOs) Prediction Service
